Ketchikan, AK

2:18 AM AKST on January 21, 2019 (GMT -0900)
Ketchikan International

Weather History for PAKT - December, 2018

Change the Weather History Date:

Saturday, December 8, 2018

  Actual Average Record
Temperature  
Mean Temperature 42 °F -  
Max Temperature 48 °F 41 °F 56 °F (1960)
Min Temperature 37 °F 30 °F 0 °F (1977)
Degree Days  
Heating Degree Days 22    
Moisture  
Dew Point 36 °F    
Average Humidity 75    
Maximum Humidity 93    
Minimum Humidity 61    
Precipitation  
Precipitation 0.00 in - - ()
Sea Level Pressure  
Sea Level Pressure 29.91 in    
Wind  
Wind Speed 11 mph (SSE)    
Max Wind Speed 25 mph    
Max Gust Speed 39 mph    
Visibility 10 miles    
Events Rain    
Averages and records for this station are not official NWS values.
T = Trace of Precipitation, MM = Missing Value Source: NWS Daily Summary

Daily Weather History Graph

Daily Weather History Graph

Search for Another Location

Airport or City:

Astronomy

Dec. 08, 2018 Rise Set
Actual Time 8:00 AM AKST 3:17 PM AKST
Civil Twilight 7:15 AM AKST 4:02 PM AKST
Nautical Twilight 6:27 AM AKST 4:50 PM AKST
Astronomical Twilight 5:42 AM AKST 5:34 PM AKST
Moon 9:09 AM AKST (12/8) 4:46 PM AKST (12/8)
Length of Visible Light 8h 47m
Length of Day
7h 16m
New Moon, 2% of the Moon is Illuminated
Dec 8
New Moon
Dec 15
First Quarter
Dec 22
Full
Dec 29
Last Quarter
Jan 5
New

Hourly Weather History & Observations

Time (AKST) Temp. Windchill Dew Point Humidity Pressure Visibility Wind Dir Wind Speed Gust Speed Precip Events Conditions
12:01 AM 37.0 °F 33.3 °F 34.0 °F 89% 29.94 in 9.0 mi South 4.6 mph - N/A Rain Light Rain
12:53 AM 37.0 °F 31.6 °F 35.1 °F 93% 29.95 in 7.0 mi South 6.9 mph - N/A Rain Light Rain
1:53 AM 37.9 °F 32.7 °F 35.1 °F 89% 29.98 in 10.0 mi South 6.9 mph - N/A Rain Light Rain
2:53 AM 39.0 °F 34.8 °F 36.0 °F 89% 29.98 in 8.0 mi South 5.8 mph - N/A Rain Light Rain
3:41 AM 39.0 °F 34.0 °F 37.0 °F 93% 29.98 in 10.0 mi South 6.9 mph - N/A Rain Light Rain
3:51 AM 39.2 °F 33.6 °F 37.4 °F 93% 29.98 in 10.0 mi South 8.1 mph - N/A   Overcast
3:53 AM 39.0 °F 33.4 °F 37.0 °F 93% 29.99 in 10.0 mi South 8.1 mph - N/A   Overcast
4:53 AM 41.0 °F 33.9 °F 37.0 °F 86% 29.98 in 10.0 mi SSE 12.7 mph - N/A   Overcast
5:53 AM 41.0 °F 38.0 °F 37.0 °F 86% 29.98 in 10.0 mi South 4.6 mph - N/A   Overcast
6:53 AM 42.8 °F 37.5 °F 37.4 °F 81% 29.97 in 10.0 mi South 9.2 mph - N/A   Overcast
7:53 AM 42.8 °F 36.6 °F 37.4 °F 81% 29.97 in 10.0 mi SSE 11.5 mph 21.9 mph N/A   Mostly Cloudy
8:53 AM 42.8 °F 37.5 °F 37.4 °F 81% 29.98 in 10.0 mi South 9.2 mph - N/A   Overcast
9:53 AM 44.6 °F 39.7 °F 37.4 °F 76% 29.98 in 10.0 mi South 9.2 mph 20.7 mph N/A   Overcast
10:53 AM 46.4 °F 39.2 °F 35.6 °F 66% 29.96 in 10.0 mi SE 18.4 mph 26.5 mph N/A   Overcast
11:53 AM 46.4 °F 37.9 °F 35.6 °F 66% 29.95 in 10.0 mi SE 25.3 mph 36.8 mph N/A   Overcast
12:53 PM 46.4 °F 40.4 °F 35.6 °F 66% 29.94 in 10.0 mi SSE 13.8 mph 24.2 mph N/A   Overcast
1:53 PM 46.4 °F 39.5 °F 35.6 °F 66% 29.93 in 10.0 mi SSE 17.3 mph 26.5 mph N/A   Overcast
2:53 PM 46.4 °F 38.1 °F 35.6 °F 66% 29.91 in 10.0 mi SE 24.2 mph 34.5 mph N/A Rain Light Rain
3:53 PM 46.9 °F - 36.0 °F 66% 29.88 in 10.0 mi SE 18.4 mph 31.1 mph 0.00 in   Overcast
4:53 PM 46.9 °F - 36.0 °F 66% 29.87 in 10.0 mi SE 23.0 mph 29.9 mph N/A   Overcast
5:53 PM 46.9 °F - 36.0 °F 66% 29.85 in 10.0 mi SE 23.0 mph 32.2 mph N/A   Overcast
6:53 PM 46.9 °F - 36.0 °F 66% 29.83 in 10.0 mi SE 20.7 mph 33.4 mph N/A   Overcast
7:53 PM 46.9 °F - 36.0 °F 66% 29.81 in 10.0 mi SE 19.6 mph 32.2 mph N/A   Overcast
8:53 PM 48.0 °F - 36.0 °F 63% 29.79 in 10.0 mi SE 25.3 mph 38.0 mph N/A   Overcast
9:53 PM 48.0 °F - 36.0 °F 63% 29.76 in 10.0 mi SE 25.3 mph 34.5 mph N/A   Overcast
10:53 PM 48.9 °F - 36.0 °F 61% 29.74 in 10.0 mi SE 20.7 mph 36.8 mph N/A   Overcast
11:53 PM 48.9 °F - 36.0 °F 61% 29.71 in 10.0 mi SE 23.0 mph 39.1 mph 0.00 in Rain Light Rain